Location: Krakow
(50.0830°N, 19.9170°E)
Time: 02:41:46
(UTC+01:00)

Courier 1B Rocket - Pass Details

Date: 11 December 2023
Orbit: 920 x 1202 km, 28.2° (Epoch: 01 March)

Event Time Altitude Azimuth Distance (km) Brightness Sun altitude
Rises 11:06:49 0° 228° (SW) 3,853 8.6 16.7°
Reaches altitude 10° 11:12:55 10° 188° (S) 2,803 9.4 16.8°
Maximum altitude 11:13:42 10° 181° (S) 2,776 9.9 16.8°
Drops below altitude 10° 11:14:30 10° 175° (S) 2,780 10.2 16.8°
Sets 11:20:18 0° 134° (SE) 3,646 8.8 16.9°
